Weather History for PHBK - September, 2013

Change the Weather History Date:

Friday, September 27, 2013

  Actual Average Record
Temperature  
Mean Temperature 76 °F -  
Max Temperature 82 °F 87 °F 92 °F (1976)
Min Temperature 71 °F 67 °F 60 °F (1965)
Cooling Degree Days 12    
Growing Degree Days 26 (Base 50)    
Moisture  
Dew Point 67 °F    
Average Humidity 71    
Maximum Humidity 79    
Minimum Humidity 66    
Precipitation  
Precipitation 0.00 in - - ()
Sea Level Pressure  
Sea Level Pressure 30.02 in    
Wind  
Wind Speed 4 mph (NNE)    
Max Wind Speed 10 mph    
Max Gust Speed -    
Visibility 10 miles    
Events Rain    
Averages and records for this station are not official NWS values.
T = Trace of Precipitation, MM = Missing Value Source: NWS Daily Summary

Daily Weather History Graph

Daily Weather History Graph

Search for Another Location

Airport or City:

Trip Planner

Search our weather history database for the weather conditions in past years. The results will help you decide how hot, cold, wet, or windy it might be!

Date:

Astronomy

Sep. 27, 2013 Rise Set
Actual Time 6:29 AM HST 6:30 PM HST
Civil Twilight 6:07 AM HST 6:52 PM HST
Nautical Twilight 5:41 AM HST 7:18 PM HST
Astronomical Twilight 5:15 AM HST 7:44 PM HST
Moon 12:13 AM HST 1:39 PM HST
Length of Visible Light 12h 45m
Length of Day
12h 00m
Last Quarter, 43% of the Moon is Illuminated
Sep 27
Last Quarter
Oct 4
New
Oct 11
First Quarter
Oct 18
Full
Oct 26
Last Quarter

Hourly Weather History & Observations

Time (HST) Temp. Heat Index Dew Point Humidity Pressure Visibility Wind Dir Wind Speed Gust Speed Precip Events Conditions
12:56 AM 73.9 °F - 66.9 °F 79% 29.98 in 10.0 mi Calm Calm - N/A   Clear
1:56 AM 73.0 °F - 66.0 °F 79% 29.97 in 10.0 mi East 3.5 mph - N/A   Clear
2:56 AM 73.0 °F - 64.0 °F 73% 29.95 in 10.0 mi NE 4.6 mph - N/A   Clear
3:56 AM 73.0 °F - 64.0 °F 73% 29.95 in 10.0 mi ENE 3.5 mph - N/A   Clear
4:56 AM 72.0 °F - 63.0 °F 73% 29.96 in 10.0 mi ENE 4.6 mph - N/A   Clear
5:56 AM 71.1 °F - 63.0 °F 75% 29.98 in 10.0 mi ENE 4.6 mph - N/A   Clear
6:56 AM 71.1 °F - 63.0 °F 75% 30.00 in 10.0 mi East 4.6 mph - N/A   Clear
7:56 AM 77.0 °F - 64.9 °F 66% 30.02 in 10.0 mi ENE 4.6 mph - N/A   Clear
8:56 AM 81.0 °F 84.1 °F 69.1 °F 67% 30.04 in 10.0 mi NW 4.6 mph - N/A   Clear
9:56 AM 81.0 °F 84.1 °F 69.1 °F 67% 30.04 in 10.0 mi NNW 4.6 mph - N/A   Scattered Clouds
10:56 AM 81.0 °F 84.4 °F 70.0 °F 69% 30.05 in 10.0 mi NNW 9.2 mph - N/A   Overcast
11:56 AM 81.0 °F 84.4 °F 70.0 °F 69% 30.04 in 10.0 mi NNW 10.4 mph - N/A   Overcast
12:56 PM 81.0 °F 84.4 °F 70.0 °F 69% 30.02 in 10.0 mi WNW 8.1 mph - 0.00 in Rain Light Rain
1:56 PM 82.0 °F 85.9 °F 70.0 °F 67% 30.01 in 10.0 mi NNW 8.1 mph - 0.00 in   Mostly Cloudy
2:56 PM 82.0 °F 85.9 °F 70.0 °F 67% 30.00 in 10.0 mi NNW 6.9 mph - N/A   Overcast
3:56 PM 82.9 °F 87.5 °F 71.1 °F 67% 30.00 in 10.0 mi NW 4.6 mph - N/A   Mostly Cloudy
4:56 PM 82.0 °F 86.3 °F 71.1 °F 69% 30.02 in 10.0 mi West 6.9 mph - N/A   Mostly Cloudy
5:56 PM 81.0 °F 84.9 °F 71.1 °F 72% 30.02 in 10.0 mi West 5.8 mph - N/A   Clear
6:56 PM 79.0 °F - 71.1 °F 77% 30.04 in 10.0 mi NNE 4.6 mph - N/A   Clear
7:56 PM 77.0 °F - 70.0 °F 79% 30.06 in 10.0 mi Calm Calm - N/A   Clear
8:56 PM 75.0 °F - 63.0 °F 66% 30.08 in 10.0 mi East 3.5 mph - N/A   Clear
9:56 PM 75.0 °F - 64.0 °F 69% 30.09 in 10.0 mi ENE 4.6 mph - N/A   Clear
10:56 PM 73.9 °F - 62.1 °F 66% 30.09 in 10.0 mi ENE 3.5 mph - N/A   Clear
11:56 PM 73.0 °F - 63.0 °F 71% 30.09 in 10.0 mi ESE 3.5 mph - N/A   Clear